London-Corbin, KY

12:54 PM EST on December 11, 2019 (GMT -0500)
London-Corbin / McKee

Weather History for KLOZ - November, 2019

Change the Weather History Date:

Monday, November 11, 2019

  Actual Average Record
Temperature  
Mean Temperature 50 °F 49 °F  
Max Temperature 65 °F 61 °F 73 °F (1989)
Min Temperature 34 °F 38 °F 16 °F (1957)
Degree Days  
Heating Degree Days 15 16  
Month to date heating degree days 234 158  
Since 1 July heating degree days 445 464  
Cooling Degree Days 0 0  
Month to date cooling degree days 0 0  
Year to date cooling degree days 1484 1188  
Moisture  
Dew Point 40 °F    
Average Humidity 68    
Maximum Humidity 92    
Minimum Humidity 43    
Precipitation  
Precipitation 0.25 in 0.11 in 1.05 in (1986)
Month to date precipitation 0.66 1.24  
Sea Level Pressure  
Sea Level Pressure 30.04 in    
Wind  
Wind Speed 7 mph (WNW)    
Max Wind Speed 18 mph    
Max Gust Speed 31 mph    
Visibility 9 miles    
Events Rain    
T = Trace of Precipitation, MM = Missing Value Source: NWS Daily Summary

Daily Weather History Graph

Daily Weather History Graph

Search for Another Location

Airport or City:

Astronomy

Nov. 11, 2019 Rise Set
Actual Time 7:10 AM EST 5:29 PM EST
Civil Twilight 6:43 AM EST 5:57 PM EST
Nautical Twilight 6:11 AM EST 6:28 PM EST
Astronomical Twilight 5:41 AM EST 6:58 PM EST
Moon 5:22 PM EST 6:03 AM EST
Length of Visible Light 11h 13m
Length of Day
10h 18m
Waxing Gibbous, 99% of the Moon is Illuminated
Nov 11
Waxing Gibbous
Nov 12
Full
Nov 19
Last Quarter
Nov 26
New
Dec 4
First Quarter

Hourly Weather History & Observations

Time (EST) Temp. Windchill Dew Point Humidity Pressure Visibility Wind Dir Wind Speed Gust Speed Precip Events Conditions
12:53 AM 42.1 °F - 35.1 °F 76% 30.08 in 10.0 mi Calm Calm - N/A   Clear
1:53 AM 41.0 °F - 35.1 °F 79% 30.09 in 10.0 mi Calm Calm - N/A   Clear
2:53 AM 39.9 °F - 35.1 °F 83% 30.09 in 10.0 mi Calm Calm - N/A   Clear
3:53 AM 37.0 °F - 33.1 °F 86% 30.09 in 10.0 mi Calm Calm - N/A   Clear
4:53 AM 37.0 °F - 34.0 °F 89% 30.11 in 10.0 mi Calm Calm - N/A   Clear
5:53 AM 36.0 °F - 34.0 °F 93% 30.10 in 10.0 mi Calm Calm - N/A   Clear
6:53 AM 37.9 °F - 35.1 °F 89% 30.09 in 10.0 mi Calm Calm - N/A   Clear
7:53 AM 37.9 °F - 35.1 °F 89% 30.10 in 10.0 mi Calm Calm - N/A   Clear
8:53 AM 46.9 °F - 39.9 °F 77% 30.11 in 10.0 mi Calm Calm - N/A   Clear
9:53 AM 55.9 °F - 42.1 °F 60% 30.09 in 10.0 mi SSW 9.2 mph - N/A   Clear
10:53 AM 60.1 °F - 42.1 °F 51% 30.06 in 10.0 mi WSW 9.2 mph 20.7 mph N/A   Clear
11:53 AM 61.0 °F - 41.0 °F 48% 30.03 in 10.0 mi WSW 11.5 mph - N/A   Clear
12:53 PM 61.0 °F - 39.9 °F 46% 30.00 in 10.0 mi WSW 11.5 mph 18.4 mph N/A   Clear
1:53 PM 64.0 °F - 42.1 °F 45% 29.98 in 10.0 mi SW 6.9 mph - N/A   Partly Cloudy
2:53 PM 64.0 °F - 41.0 °F 43% 29.96 in 10.0 mi WSW 12.7 mph - N/A   Scattered Clouds
3:53 PM 63.0 °F - 42.1 °F 46% 29.96 in 10.0 mi WSW 8.1 mph - N/A   Overcast
4:53 PM 62.1 °F - 43.0 °F 50% 29.95 in 10.0 mi WSW 10.4 mph - N/A   Mostly Cloudy
5:53 PM 59.0 °F - 46.0 °F 62% 29.96 in 10.0 mi WSW 9.2 mph - 0.00 in Rain Light Rain
6:53 PM 57.0 °F - 48.0 °F 72% 29.96 in 10.0 mi WSW 4.6 mph - 0.00 in   Overcast
7:53 PM 55.0 °F - 48.0 °F 77% 29.96 in 10.0 mi WSW 6.9 mph - 0.01 in Rain Light Rain
8:31 PM 52.0 °F - 48.9 °F 89% 29.97 in 7.0 mi WNW 6.9 mph - 0.03 in Rain Light Rain
8:40 PM 52.0 °F - 50.0 °F 93% 29.97 in 6.0 mi West 8.1 mph - 0.04 in Rain Light Rain
8:53 PM 51.1 °F - 48.9 °F 92% 29.97 in 6.0 mi NW 15.0 mph 20.7 mph 0.06 in Rain Light Rain
9:06 PM 46.9 °F - 45.0 °F 93% 29.99 in 6.0 mi NW 9.2 mph 21.9 mph 0.02 in Rain Light Rain
9:49 PM 42.8 °F 36.2 °F 41.0 °F 93% 30.02 in 10.0 mi NW 12.7 mph 21.9 mph 0.06 in Rain Light Rain
9:53 PM 43.0 °F 35.1 °F 39.9 °F 89% 30.02 in 10.0 mi NNW 17.3 mph 25.3 mph 0.07 in Rain Light Rain
9:58 PM 42.1 °F 33.9 °F 39.0 °F 89% 30.03 in 10.0 mi NNW 17.3 mph 25.3 mph 0.00 in Rain Light Rain
10:11 PM 41.0 °F 32.8 °F 37.9 °F 89% 30.03 in 8.0 mi North 16.1 mph 24.2 mph 0.00 in Rain Light Rain
10:18 PM 41.0 °F 32.8 °F 37.9 °F 89% 30.04 in 8.0 mi NNW 16.1 mph 24.2 mph 0.00 in Rain Light Rain
10:35 PM 39.0 °F 30.3 °F 36.0 °F 89% 30.05 in 5.0 mi NNW 16.1 mph 24.2 mph 0.01 in Rain Light Rain
10:53 PM 37.9 °F 30.9 °F 35.1 °F 89% 30.07 in 5.0 mi NNW 10.4 mph - 0.04 in Rain Rain
11:00 PM 37.0 °F 32.4 °F 35.1 °F 93% 30.07 in 5.0 mi NW 5.8 mph 19.6 mph 0.01 in Rain Rain
11:53 PM 34.0 °F 24.6 °F 32.0 °F 92% 30.11 in 10.0 mi NNW 13.8 mph 21.9 mph 0.07 in Rain Light Rain
11:59 PM 34.0 °F 26.6 °F 30.9 °F 89% 30.11 in 10.0 mi NW 9.2 mph 21.9 mph 0.00 in Rain Light Rain